Flag for Germany Past Weather in Schloss Holte-Stukenbrock, North Rhine-Westphalia, Germany — Yesterday and Last 2 Weeks

Now
61 °F

Light rain. Fog.


Feels Like: 61 °F
Forecast: 59 / 72 °F
Wind: 3 mph from West

Location: Paderborn / Lippstadt

Current Time: May 30, 2016 at 1:13:38 AM

Latest Report: May 30, 2016 at 12:50 AM


Visibility: 3 mi

Pressure: 29.71 "Hg

Humidity: 94%

Dew Point: 59 °F

Location of Schloss Holte-StukenbrockLocation

Past Weather in Schloss Holte-Stukenbrock — Graph

°F

Schloss Holte-Stukenbrock Temperature Yesterday

Maximum temperature yesterday: 68 °F (at 5:20 PM)
Minimum temperature yesterday: 59 °F (at 12:50 AM)
Average temperature yesterday: 63 °F

High & Low Weather Summary for the Past Weeks

 TemperatureHumidityPressure
High79 °F (May 22, 1:50 PM)100% (May 15, 2:50 AM)30.09 "Hg (May 15, 2:50 AM)
Low37 °F (May 16, 4:20 AM)34% (May 18, 3:20 PM)29.68 "Hg (May 19, 2:50 AM)
Average57 °F78%29.94 "Hg
* Reported May 14 11:20 PM — May 29 11:20 PM, Schloss Holte-Stukenbrock, Weather by CustomWeather, © 2016

Note: Actual official high and low records may vary slightly from our data, if they occured in-between our weather recording intervals... More about our weather records

Advertising

Schloss Holte-Stukenbrock Weather History for the Previous 24 Hours

Scroll right to see more
 ConditionsComfort  
Time TempWeatherWind HumidityBarometerVisibility
11:20 PM
Sun, May 29
61 °FPassing clouds.3 mph100%29.71 "Hg5 mi
10:50 PM61 °FPassing clouds.3 mph100%29.71 "Hg5 mi
10:20 PM63 °FPartly sunny.3 mph100%29.74 "Hg4 mi
9:50 PM63 °FPartly sunny.3 mph100%29.74 "Hg4 mi
9:20 PM64 °FPartly sunny.6 mph94%29.71 "Hg4 mi
8:50 PM63 °FPartly sunny.5 mph100%29.71 "Hg5 mi
8:20 PM64 °FScattered clouds.7 mph100%29.71 "Hg5 mi
7:50 PM66 °FScattered clouds.7 mph88%29.71 "HgN/A
7:20 PM68 °FScattered clouds.6 mph83%29.71 "HgN/A
6:50 PM68 °FScattered clouds.7 mph83%29.71 "HgN/A
6:20 PM68 °FScattered clouds.7 mph83%29.71 "HgN/A
5:50 PM68 °FScattered clouds.9 mph78%29.71 "HgN/A
5:20 PM68 °FScattered clouds.6 mph83%29.71 "HgN/A
4:50 PM66 °FBroken clouds.5 mph88%29.74 "HgN/A
4:20 PM64 °FBroken clouds.7 mph94%29.74 "HgN/A
3:50 PM66 °FBroken clouds.7 mph88%29.74 "HgN/A
3:20 PM66 °FBroken clouds.6 mph83%29.74 "HgN/A
2:50 PM66 °FBroken clouds.6 mph83%29.74 "HgN/A
2:20 PM66 °FBroken clouds.3 mph78%29.74 "Hg6 mi
1:50 PM66 °FBroken clouds.3 mph78%29.74 "Hg6 mi
1:20 PM66 °FBroken clouds.6 mph83%29.74 "Hg6 mi
12:50 PM64 °FMore clouds than sun.7 mph88%29.74 "Hg5 mi
12:20 PM63 °FMostly cloudy.8 mph94%29.74 "Hg5 mi
11:50 AM64 °FOvercast.9 mph88%29.74 "Hg4 mi
11:20 AM63 °FOvercast.8 mph100%29.74 "Hg4 mi
10:50 AM61 °FDrizzle. Low clouds.9 mph100%29.77 "Hg3 mi
10:20 AM61 °FDrizzle. Low clouds.8 mph100%29.77 "Hg4 mi
9:50 AM61 °FDrizzle. Overcast.9 mph100%29.77 "Hg3 mi
9:20 AM64 °FBroken clouds.6 mph83%29.77 "Hg6 mi
8:50 AM64 °FPassing clouds.7 mph83%29.77 "HgN/A
8:20 AM61 °FSunny.3 mph100%29.77 "Hg10 mi
7:50 AM61 °FSunny.5 mph100%29.77 "Hg10 mi
7:20 AM61 °FSunny.5 mph100%29.77 "Hg10 mi
6:50 AM59 °FCool.2 mph100%29.77 "Hg5 mi
6:20 AM59 °FPassing clouds.3 mph100%29.80 "HgN/A
5:50 AM59 °FClear.1 mph100%29.80 "Hg10 mi
5:20 AM61 °FClear.2 mph94%29.80 "Hg10 mi
4:50 AM61 °FPassing clouds.5 mph100%29.80 "HgN/A
4:20 AM61 °FPassing clouds.5 mph100%29.80 "HgN/A
3:50 AM61 °FPassing clouds.3 mph100%29.83 "HgN/A
2:50 AM59 °FClear.3 mph100%29.83 "Hg10 mi
2:20 AM59 °FClear.1 mph100%29.83 "Hg10 mi
1:50 AM61 °FClear.2 mph100%29.83 "Hg10 mi
1:20 AM63 °FClear.6 mph94%29.83 "Hg10 mi
Weather by CustomWeather, © 2016

See weather overviewHow to use our weather pages